Sparta, WI

12:13 PM CST on December 16, 2017 (GMT -0600)
Sparta-Fort McCoy

Weather History for KCMY - November, 2011

Change the Weather History Date:

Monday, November 14, 2011

  Actual Average Record
Temperature  
Mean Temperature 42 °F -  
Max Temperature 57 °F 41 °F 67 °F (1964)
Min Temperature 26 °F 24 °F 1 °F (1976)
Degree Days  
Heating Degree Days 24    
Moisture  
Dew Point 30 °F    
Average Humidity 71    
Maximum Humidity 99    
Minimum Humidity 42    
Precipitation  
Precipitation 0.00 in - - ()
Sea Level Pressure  
Sea Level Pressure 29.54 in    
Wind  
Wind Speed 3 mph (SW)    
Max Wind Speed 13 mph    
Max Gust Speed 22 mph    
Visibility 10 miles    
Events      
Averages and records for this station are not official NWS values.
T = Trace of Precipitation, MM = Missing Value Source: NWS Daily Summary

Daily Weather History Graph

Daily Weather History Graph

Search for Another Location

Airport or City:

Trip Planner

Search our weather history database for the weather conditions in past years. The results will help you decide how hot, cold, wet, or windy it might be!

Date:

Astronomy

Nov. 14, 2011 Rise Set
Actual Time 6:56 AM CST 4:38 PM CST
Civil Twilight 6:25 AM CST 5:09 PM CST
Nautical Twilight 5:50 AM CST 5:43 PM CST
Astronomical Twilight 5:16 AM CST 6:17 PM CST
Moon 7:42 PM CST (11/14) 10:17 AM CST (11/14)
Length of Visible Light 10h 43m
Length of Day
9h 41m
Waning Gibbous, 86% of the Moon is Illuminated
Nov 14
Waning Gibbous
Nov 18
Last Quarter
Nov 25
New
Dec 2
First Quarter
Dec 10
Full

Hourly Weather History & Observations

Time (CST) Temp. Windchill Dew Point Humidity Pressure Visibility Wind Dir Wind Speed Gust Speed Precip Events Conditions
12:15 AM 34.0 °F - 30.2 °F 86% 29.55 in 10.0 mi Calm Calm - N/A   Clear
12:35 AM 33.6 °F 30.6 °F 30.7 °F 89% 29.55 in 10.0 mi South 3.5 mph - N/A   Clear
12:55 AM 37.4 °F - 32.5 °F 83% 29.55 in 10.0 mi Calm Calm - N/A   Clear
1:15 AM 36.9 °F - 31.5 °F 81% 29.56 in 10.0 mi Calm Calm - N/A   Clear
1:35 AM 32.4 °F - 29.7 °F 90% 29.55 in 10.0 mi Calm Calm - N/A   Clear
1:55 AM 31.1 °F - 28.9 °F 92% 29.56 in 10.0 mi Calm Calm - N/A   Clear
2:15 AM 30.7 °F - 28.9 °F 93% 29.55 in 10.0 mi Calm Calm - N/A   Clear
2:35 AM 30.0 °F - 28.6 °F 94% 29.55 in 10.0 mi Calm Calm - N/A   Clear
2:55 AM 29.7 °F - 28.4 °F 95% 29.54 in 10.0 mi Calm Calm - N/A   Clear
3:35 AM 29.5 °F - 28.6 °F 96% 29.53 in 10.0 mi Calm Calm - N/A   Clear
3:55 AM 28.6 °F - 27.9 °F 97% 29.54 in 10.0 mi Calm Calm - N/A   Clear
4:15 AM 28.6 °F - 28.2 °F 99% 29.53 in 10.0 mi Calm Calm - N/A   Clear
4:35 AM 27.7 °F - 27.3 °F 99% 29.53 in 10.0 mi Calm Calm - N/A   Clear
4:55 AM 27.9 °F - 27.5 °F 99% 29.53 in 10.0 mi Calm Calm - N/A   Clear
5:15 AM 27.5 °F - 27.1 °F 99% 29.53 in 7.0 mi Calm Calm - N/A   Clear
5:35 AM 26.6 °F - 26.1 °F 98% 29.53 in 10.0 mi Calm Calm - N/A   Clear
6:15 AM 27.1 °F - 26.4 °F 97% 29.51 in 10.0 mi Calm Calm - N/A   Clear
6:35 AM 27.5 °F - 27.1 °F 99% 29.52 in 10.0 mi Calm Calm - N/A   Clear
6:55 AM 27.9 °F - 27.3 °F 98% 29.53 in 10.0 mi Calm Calm - N/A   Clear
7:35 AM 28.8 °F - 28.2 °F 98% 29.54 in 10.0 mi Calm Calm - N/A   Clear
7:55 AM 30.0 °F - 29.5 °F 98% 29.54 in 10.0 mi Calm Calm - N/A   Mostly Cloudy
8:15 AM 31.5 °F 28.1 °F 30.4 °F 96% 29.55 in 10.0 mi North 3.5 mph - N/A   Scattered Clouds
9:15 AM 39.2 °F 37.0 °F 35.6 °F 87% 29.55 in 10.0 mi WSW 3.5 mph - N/A   Overcast
9:35 AM 43.2 °F - 36.0 °F 76% 29.54 in 10.0 mi Calm Calm - N/A   Overcast
9:55 AM 45.0 °F 40.1 °F 35.6 °F 70% 29.54 in 10.0 mi SW 9.2 mph - N/A   Overcast
10:35 AM 48.0 °F - 34.2 °F 59% 29.54 in 10.0 mi SSW 5.8 mph 9.2 mph N/A   Overcast
10:55 AM 49.1 °F - 34.9 °F 58% 29.53 in 10.0 mi South 8.1 mph - N/A   Overcast
11:15 AM 48.7 °F - 35.8 °F 61% 29.52 in 10.0 mi South 8.1 mph - N/A   Overcast
11:35 AM 50.5 °F - 37.0 °F 60% 29.49 in 10.0 mi South 10.4 mph - N/A   Mostly Cloudy
12:15 PM 53.8 °F - 36.9 °F 53% 29.45 in 10.0 mi SSW 9.2 mph 19.6 mph N/A   Scattered Clouds
12:35 PM 54.7 °F - 37.0 °F 51% 29.46 in 10.0 mi SSW 8.1 mph 20.7 mph N/A   Scattered Clouds
1:15 PM 55.4 °F - 37.0 °F 50% 29.47 in 10.0 mi South 12.7 mph 21.9 mph N/A   Mostly Cloudy
1:35 PM 55.8 °F - 37.2 °F 50% 29.47 in 10.0 mi SSW 11.5 mph 17.3 mph N/A   Mostly Cloudy
1:55 PM 56.3 °F - 36.3 °F 47% 29.47 in 10.0 mi SW 10.4 mph 18.4 mph N/A   Overcast
2:15 PM 57.0 °F - 35.8 °F 45% 29.46 in 10.0 mi SW 10.4 mph 18.4 mph N/A   Mostly Cloudy
2:35 PM 56.5 °F - 35.8 °F 46% 29.47 in 10.0 mi SW 9.2 mph - N/A   Scattered Clouds
2:55 PM 56.8 °F - 35.6 °F 45% 29.47 in 10.0 mi WSW 10.4 mph 17.3 mph N/A   Scattered Clouds
3:15 PM 56.1 °F - 35.6 °F 46% 29.47 in 10.0 mi SSW 9.2 mph 18.4 mph N/A   Scattered Clouds
3:35 PM 56.1 °F - 35.1 °F 45% 29.47 in 10.0 mi WSW 10.4 mph 18.4 mph N/A   Scattered Clouds
3:55 PM 55.8 °F - 33.6 °F 43% 29.48 in 10.0 mi WSW 10.4 mph 19.6 mph N/A   Mostly Cloudy
4:15 PM 55.0 °F - 32.2 °F 42% 29.49 in 10.0 mi West 10.4 mph 16.1 mph N/A   Scattered Clouds
4:35 PM 53.8 °F - 32.0 °F 44% 29.49 in 10.0 mi West 8.1 mph - N/A   Clear
4:55 PM 52.2 °F - 31.8 °F 46% 29.51 in 10.0 mi WSW 6.9 mph - N/A   Clear
5:15 PM 51.6 °F - 31.1 °F 45% 29.53 in 10.0 mi WSW 8.1 mph - N/A   Clear
5:35 PM 49.8 °F - 31.3 °F 49% 29.54 in 10.0 mi West 6.9 mph - N/A   Clear
5:55 PM 48.9 °F - 28.2 °F 45% 29.56 in 10.0 mi WSW 5.8 mph - N/A   Clear
6:15 PM 48.2 °F - 25.7 °F 42% 29.57 in 10.0 mi WSW 3.5 mph - N/A   Clear
6:35 PM 46.9 °F - 25.2 °F 43% 29.58 in 10.0 mi WSW 5.8 mph - N/A   Clear
6:55 PM 46.9 °F - 25.0 °F 42% 29.60 in 10.0 mi West 5.8 mph - N/A   Clear
7:15 PM 46.2 °F 45.0 °F 24.3 °F 42% 29.61 in 10.0 mi SW 3.5 mph - N/A   Clear
7:35 PM 44.8 °F - 24.8 °F 46% 29.62 in 10.0 mi Calm Calm - N/A   Clear
7:55 PM 39.9 °F - 25.2 °F 56% 29.62 in 10.0 mi Calm Calm - N/A   Clear
8:15 PM 33.6 °F - 25.9 °F 73% 29.63 in 10.0 mi Calm Calm - N/A   Clear
8:35 PM 31.6 °F - 26.2 °F 80% 29.64 in 10.0 mi Calm Calm - N/A   Clear
8:55 PM 30.9 °F - 25.7 °F 81% 29.65 in 10.0 mi Calm Calm - N/A   Clear
9:15 PM 30.2 °F 26.7 °F 25.3 °F 82% 29.65 in 10.0 mi ESE 3.5 mph - N/A   Clear
9:55 PM 28.8 °F - 24.6 °F 84% 29.65 in 10.0 mi Calm Calm - N/A   Clear
10:15 PM 28.0 °F 24.2 °F 24.1 °F 85% 29.65 in 10.0 mi South 3.5 mph - N/A   Clear
10:55 PM 26.8 °F - 23.9 °F 89% 29.66 in 10.0 mi Calm Calm - N/A   Clear